Weather observations for the past three days for
Teterboro, Teterboro Airport
Metric (Imperial)
Date Time (edt) Wind (kph) Vis. (km) Weather Sky Cond. Temperature (ºC) Relative Humidity Wind Chill (°C) Heat Index (°C) Pressure Precipitation (cm)
Air Dwpt 6 hour altimeter (cm) sea level (mb) 1 hr 3 hr 6 hr
Max. Min.
24 17:51 SE 11 16.09 Partly Cloudy FEW029 SCT120 27.2 20.6 67% 29 76.3 1017.2
24 16:51 SE 11 16.09 A Few Clouds FEW027 28.3 22.2 70% 31 76.33 1017.6
24 15:51 SE 13 G 31 16.09 Mostly Cloudy FEW022 SCT027 BKN055 27.2 21.7 72% 29 76.38 1018.2
24 14:51 Vrbl 6 12.87 Mostly Cloudy BKN017 27.2 22.2 74% 30 76.4 1018.5
24 13:51 Vrbl 6 12.87 Mostly Cloudy BKN017 BKN024 26.1 22.2 26.7 23.3 79% 28 76.48 1019.5
24 12:51 E 9 12.87 Overcast OVC013 25.6 21.7 79% 27 76.48 1019.7
24 11:51 E 9 8.05 Overcast OVC008 24.4 21.7 85% 25 76.5 1019.9
24 10:51 NE 11 9.66 Light Drizzle OVC008 23.9 21.7 88% 24 76.5 1019.9
24 09:51 E 11 6.44 Light Drizzle OVC006 23.3 21.7 91% 76.5 1019.9
24 08:51 E 11 8.05 Overcast OVC008 23.3 21.7 91% 76.5 1019.8
24 07:51 E 6 6.44 Overcast OVC008 23.3 21.7 23.9 22.8 91% 76.48 1019.5
24 06:51 N 9 3.22 Overcast OVC007 23.3 21.7 91% 76.43 1019.1
24 05:51 Calm 12.87 Overcast OVC005 22.8 21.7 94% 76.45 1019.4
24 04:51 N 7 4.83 Overcast OVC006 22.8 21.7 94% 76.48 1019.5
24 03:51 Vrbl 7 9.66 Overcast OVC010 22.8 21.7 94% 76.43 1018.8
24 02:51 E 7 9.66 Overcast OVC007 23.3 21.1 88% 76.45 1019.3
24 01:51 NE 9 9.66 Fog/Mist BKN009 23.3 21.7 24.4 23.3 91% 76.48 1019.5
24 00:51 Vrbl 6 11.27 Mostly Cloudy BKN014 23.3 21.1 88% 76.45 1019.2
23 23:51 NE 9 11.27 Mostly Cloudy BKN014 23.3 21.1 88% 76.45 1019.1
23 22:51 N 7 16.09 A Few Clouds FEW016 23.3 20 82% 76.45 1019.3
23 21:51 N 6 16.09 Fair CLR 23.9 20 79% 24 76.45 1019.2
23 20:51 NE 6 16.09 Mostly Cloudy BKN034 24.4 20 77% 25 76.4 1018.7
23 19:51 E 7 16.09 Partly Cloudy SCT045 SCT050 24.4 20 27.8 24.4 77% 25 76.38 1018.2
23 18:51 Vrbl 7 16.09 Mostly Cloudy SCT046 SCT060 BKN080 25 21.1 79% 26 76.35 1017.8
23 17:51 Vrbl 9 16.09 Overcast FEW045 SCT050 OVC085 26.7 21.7 74% 29 76.3 1017.2
23 16:51 E 15 16.09 Mostly Cloudy SCT029 BKN039 26.7 21.7 74% 29 76.28 1016.8
23 15:51 Calm 16.09 Overcast BKN029 BKN036 OVC055 27.2 21.1 69% 29 76.28 1016.7
23 14:51 Calm 16.09 Overcast BKN021 OVC065 27.2 21.1 69% 29 76.25 1016.5
23 13:51 N 9 16.09 Overcast BKN021 BKN027 OVC070 26.7 21.1 27.2 21.7 71% 28 76.25 1016.4
23 12:51 Calm 16.09 Light Drizzle FEW019 BKN047 BKN060 26.1 21.1 74% 28 76.25 1016.4
23 11:51 Calm 16.09 Overcast SCT016 BKN031 OVC046 24.4 21.1 82% 25 76.23 1016.3
23 10:51 E 6 9.66 Overcast with Haze OVC010 23.9 21.1 84% 24 76.23 1016.1
23 09:51 E 6 9.66 Fog/Mist OVC009 22.8 21.1 90% 76.2 1015.9
23 08:51 Calm 4.83 Fog/Mist BKN007 BKN018 OVC048 22.8 21.1 90% 76.17 1015.5
23 07:51 N 6 9.66 Fog/Mist OVC006 22.2 20.6 22.2 21.1 91% 76.15 1015.2 0.03 0.13
23 06:51 Calm 4.83 Light Rain Fog/Mist OVC009 21.1 20 93% 76.12 1014.8 0.03
23 05:51 NE 9 16.09 Overcast SCT006 BKN010 OVC020 21.7 20 90% 76.07 1014.2
23 04:51 NE 9 16.09 Overcast OVC006 21.1 20 93% 76.05 1013.9 0.08
23 03:51 NE 9 4.83 Light Rain Fog/Mist OVC007 21.7 20.6 94% 76.05 1013.8 0.05
23 02:51 N 6 4.83 Light Rain Fog/Mist OVC010 21.7 20.6 94% 76.12 1014.7 0.03
23 01:51 NE 7 4.83 Fog/Mist SCT017 SCT028 OVC047 21.7 20.6 30.6 21.7 94% 76.1 1014.4 0.1 0.76
23 00:51 NE 11 3.22 Rain Fog/Mist SCT017 BKN036 OVC045 21.7 20 90% 76.1 1014.6 0.66
22 23:51 E 17 16.09 Rain SCT019 BKN028 OVC033 22.8 20.6 87% 76.12 1014.8
22 22:51 Calm 16.09 Overcast OVC080 25 21.7 82% 26 76.15 1015.3
22 21:51 Calm 16.09 Overcast OVC090 25 21.7 82% 26 76.2 1015.9
22 20:51 S 11 16.09 Overcast FEW027 OVC120 25.6 21.7 79% 27 76.17 1015.6
22 19:51 S 13 16.09 A Few Clouds FEW023 30.6 21.7 30.6 26.1 59% 34 76.17 1015.7
22 18:51 S 17 16.09 Fair CLR 27.8 21.1 67% 30 76.2 1015.8
22 17:51 S 20 16.09 Fair CLR 26.1 20.6 72% 28 76.23 1016.1
22 16:51 S 17 G 37 16.09 Fair CLR 30 18.9 51% 31 76.25 1016.5
22 15:51 S 15 16.09 Fair CLR 27.8 16.7 51% 28 76.28 1016.8
22 14:51 S 26 G 33 16.09 Mostly Cloudy FEW080 BKN110 27.8 17.2 53% 28 76.28 1016.9
22 13:51 Calm 16.09 A Few Clouds FEW032 28.3 21.1 29.4 23.9 65% 31 76.28 1016.8
22 12:51 SE 7 16.09 Fair CLR 28.3 21.7 67% 31 76.3 1017.3
22 11:51 Calm 16.09 Partly Cloudy SCT030 SCT044 28.3 21.1 65% 31 76.35 1017.9
22 10:51 Vrbl 6 16.09 Fair CLR 27.2 21.1 69% 29 76.38 1018.1
22 09:51 Vrbl 6 16.09 Fair CLR 26.1 20.6 72% 28 76.35 1018.0
22 08:51 Calm 16.09 Fair CLR 25 20.6 77% 26 76.38 1018.1
22 07:51 Calm 16.09 Fair CLR 24.4 20 24.4 21.7 77% 25 76.35 1018.0
22 06:51 N 6 16.09 Fair CLR 22.8 18.9 79% 76.35 1018.0
22 05:51 Calm 16.09 Fair CLR 23.3 20 82% 76.33 1017.6
22 04:51 S 6 16.09 Fair CLR 22.8 20.6 87% 76.3 1017.2
22 03:51 Calm 16.09 Fair CLR 22.8 20 84% 76.3 1017.3
22 02:51 S 6 16.09 Fair CLR 23.3 20 82% 76.33 1017.6
22 01:51 SW 6 16.09 Fair CLR 23.9 20 28.3 23.9 79% 24 76.35 1017.8
22 00:51 Calm 16.09 Fair CLR 25 20 74% 26 76.35 1017.7
21 23:51 Calm 16.09 Fair CLR 25 20.6 77% 26 76.33 1017.5
21 22:51 Calm 16.09 Fair CLR 25 18.3 66% 26 76.3 1017.3
21 21:51 S 9 16.09 Smoke CLR 25.6 19.4 69% 27 76.3 1017.1
21 20:51 S 7 16.09 Smoke CLR 26.7 19.4 64% 28 76.23 1016.3
21 19:51 SE 6 16.09 Smoke FEW100 28.3 18.3 33.3 28.3 55% 29 76.23 1016.1
21 18:51 S 7 16.09 Overcast SCT065 BKN085 OVC110 28.9 18.3 53% 30 76.2 1015.7
Date Time (edt) Wind (kph) Vis. (km) Weather Sky Cond. Air Dwpt Max. Min. Relative Humidity Wind Chill (°C) Heat Index (°C) altimeter (cm) sea level (mb) 1 hr 3 hr 6 hr
6 hour
Temperature (ºC) Pressure Precipitation (cm)